Preview of NWS' New Version of Forecast
This preview is not operational and should not be used for support decisions.

Regional Weather Roundup (RWR)

Issued by National Weather Service (NWS)

                            
000
ASUS45 KCYS 191710
RWRWY 

WYOMING REGIONAL WEATHER ROUNDUP
NATIONAL WEATHER SERVICE CHEYENNE WY
1000 AM MST TUE FEB 19 2019

NOTE:  "FAIR" INDICATES FEW OR NO CLOUDS BELOW 12,000 FEET
WITH NO SIGNIFICANT WEATHER AND/OR OBSTRUCTIONS TO VISIBILITY.

WYZ001-191800-
YELLOWSTONE NATIONAL PARK
  
CITY           SKY/WX    TMP DP  RH WIND       PRES   REMARKS
LK YELLOWSTONE   N/A     -1  -6  79 CALM      29.76F                  
W YELLOWSTONE  NOT AVBL                                               

$$
WYZ002>013-054>058-071-098>099-191800-
NORTHERN WYOMING
  
CITY           SKY/WX    TMP DP  RH WIND       PRES   REMARKS
JACKSON        FLURRIES   5  -3  69 NE6       29.85F WCI  -6          
CODY           FAIR      19   9  65 CALM      29.86F                  
GREYBULL       CLOUDY   N/A N/A N/A MISG      29.98F                  
WORLAND        CLOUDY    12   6  77 CALM      29.94F                  
SHERIDAN       FAIR       3  -4  72 CALM      29.95F                  
BUFFALO        FAIR      14   6  70 E3        29.84F                  
GILLETTE       PTSUNNY   10   5  80 S8        29.92F WCI  -2          
HULETT         LGT SNOW  10   5  79 MISG      29.96                   
NEWCASTLE      LGT SNOW  12   9  85 SE10G16   29.98  WCI  -1          

$$
WYZ014>020-022>026-101>103-191800-
CENTRAL WYOMING
  
CITY           SKY/WX    TMP DP  RH WIND       PRES   REMARKS
BIG PINEY      FAIR     -10 -16  74 CALM      29.84S                  
PINEDALE       FAIR     -15 -20  76 MISG      29.83  HAZE             
DUBOIS         FAIR       7  -4  61 NW10      29.73  WCI  -8          
LANDER         FAIR      11   2  67 SE6       29.84F WCI   1          
RIVERTON       CLOUDY    12   4  70 SW6       29.85F WCI   3          
CASPER         CLOUDY    14   6  70 W10       29.85F WCI   1          
DOUGLAS        FAIR      13   7  77 SW5       29.89F WCI   5          

$$
WYZ021-027>030-104>119-191800-
SOUTHERN WYOMING
  
CITY           SKY/WX    TMP DP  RH WIND       PRES   REMARKS
EVANSTON       CLOUDY   N/A N/A N/A S5        29.83S HAZE             
KEMMERER       LGT SNOW   7   0  72 N5        29.82  WCI  -2          
FORT BRIDGER   MOSUNNY    9   3  78 NE6       29.86F WCI  -1          
ROCK SPRINGS   FAIR      -1  -5  82 W7        29.84S WCI -14          
DIXON          LGT SNOW   4  -4  72 SE8       29.87F WCI -10          
RAWLINS        PTSUNNY    6   0  76 SW16      29.80F WCI -12          
SARATOGA       FLURRIES   9   1  72 CALM      29.79F                  
LARAMIE        CLOUDY     9   4  80 VRB5      29.73F HAZE    WCI   1  
CHEYENNE       CLOUDY    12   8  84 S7        29.81F WCI   1          
TORRINGTON     CLOUDY    17  10  74 SE15      29.95F WCI   2          
PINE BLUFFS    CLOUDY    16   9  73 SE15      29.90F WCI   1          

$$
  

000
ASUS45 KCYS 191710
RWRWY 

WYOMING REGIONAL WEATHER ROUNDUP
NATIONAL WEATHER SERVICE CHEYENNE WY
1000 AM MST TUE FEB 19 2019

NOTE:  "FAIR" INDICATES FEW OR NO CLOUDS BELOW 12,000 FEET
WITH NO SIGNIFICANT WEATHER AND/OR OBSTRUCTIONS TO VISIBILITY.

WYZ001-191800-
...YELLOWSTONE NATIONAL PARK...
  
CITY           SKY/WX    TMP DP  RH WIND       PRES   REMARKS
LK YELLOWSTONE   N/A     -1  -6  79 CALM      29.76F                  
W YELLOWSTONE  NOT AVBL                                               

$$
WYZ002>013-054>058-071-098>099-191800-
...NORTHERN WYOMING...
  
CITY           SKY/WX    TMP DP  RH WIND       PRES   REMARKS
JACKSON        FLURRIES   5  -3  69 NE6       29.85F WCI  -6          
CODY           SUNNY     19   9  65 CALM      29.86F                  
GREYBULL       CLOUDY   N/A N/A N/A MISG      29.98F                  
WORLAND        CLOUDY    12   6  77 CALM      29.94F                  
SHERIDAN       SUNNY      3  -4  72 CALM      29.95F                  
BUFFALO        SUNNY     14   6  70 E3        29.84F                  
GILLETTE       PTSUNNY   10   5  80 S8        29.92F WCI  -2          
HULETT         LGT SNOW  10   5  79 MISG      29.96F                  
NEWCASTLE      LGT SNOW  12   9  85 SE10G16   29.98F WCI  -1          

$$
WYZ014>020-022>026-101>103-191800-
...CENTRAL WYOMING...
  
CITY           SKY/WX    TMP DP  RH WIND       PRES   REMARKS
BIG PINEY      MOSUNNY  -10 -16  74 CALM      29.84S                  
PINEDALE       MOSUNNY  -15 -20  76 MISG      29.83S HAZE             
DUBOIS         FAIR       7  -4  61 NW10      29.73F WCI  -8          
LANDER         SUNNY     11   2  67 SE6       29.84F WCI   1          
RIVERTON       CLOUDY    12   4  70 SW6       29.85F WCI   3          
CASPER         CLOUDY    14   6  70 W10       29.85F WCI   1          
DOUGLAS        MOSUNNY   13   7  77 SW5       29.89F WCI   5          

$$
WYZ021-027>030-104>119-191800-
...SOUTHERN WYOMING...
  
CITY           SKY/WX    TMP DP  RH WIND       PRES   REMARKS
EVANSTON       CLOUDY   N/A N/A N/A S5        29.83S HAZE             
KEMMERER       FLURRIES   7   0  72 N5        29.82S WCI  -2          
FORT BRIDGER   MOSUNNY    9   3  78 NE6       29.86F WCI  -1          
ROCK SPRINGS   SUNNY     -1  -5  82 W7        29.84S WCI -14          
DIXON          LGT SNOW   4  -4  72 SE8       29.87F WCI -10          
RAWLINS        PTSUNNY    6   0  76 SW16      29.80F WCI -12          
SARATOGA       FLURRIES   9   1  72 CALM      29.79F                  
LARAMIE        CLOUDY     9   4  80 VRB5      29.73F HAZE    WCI   1  
CHEYENNE       CLOUDY    12   8  84 S7        29.81F WCI   1          
TORRINGTON     CLOUDY    17  10  74 SE15      29.95F WCI   2          
PINE BLUFFS    CLOUDY    16   9  73 SE15      29.90F WCI   1          

$$